This is the latest recevied weather packets stored in our database for station/object EB2EMZ-14. If no packets are shown the sender has not sent any weather packets the latest 10 day(s).
| Time | Temp. | Humidity | Pressure | Rain* | Wind** | Luminosity | Snow |
|---|---|---|---|---|---|---|---|
| 1777833319 | 13.89° C | 81% | 1009.8 hPa | 0 mm | - | 0 W/m² | - |
| 1777833018 | 13.89° C | 81% | 1009.7 hPa | 0 mm | - | 0 W/m² | - |
| 1777832719 | 13.89° C | 81% | 1009.7 hPa | 0 mm | - | 0 W/m² | - |
| 1777832418 | 13.89° C | 81% | 1009.6 hPa | 0 mm | - | 0 W/m² | - |
| 1777832118 | 13.89° C | 81% | 1009.6 hPa | 0 mm | - | 0 W/m² | - |
| 1777831817 | 13.89° C | 81% | 1009.6 hPa | 0 mm | - | 0 W/m² | - |
| 1777831518 | 13.33° C | 81% | 1009.6 hPa | 0 mm | - | 0 W/m² | - |
| 1777831217 | 13.89° C | 81% | 1009.7 hPa | 0 mm | - | 0 W/m² | - |
| 1777830919 | 13.89° C | 82% | 1009.8 hPa | 0 mm | - | 0 W/m² | - |
| 1777830618 | 13.89° C | 81% | 1009.9 hPa | 0 mm | - | 0 W/m² | - |
| 1777830318 | 13.33° C | 81% | 1009.9 hPa | 0 mm | - | 0 W/m² | - |
| 1777830018 | 13.33° C | 81% | 1010.1 hPa | 0 mm | - | 0 W/m² | - |
| 1777829718 | 13.33° C | 81% | 1009.9 hPa | 0 mm | - | 0 W/m² | - |
| 1777829418 | 13.33° C | 81% | 1009.9 hPa | 0 mm | - | 0 W/m² | - |
| 1777829118 | 13.33° C | 80% | 1009.8 hPa | 0 mm | - | 0 W/m² | - |
| 1777828817 | 12.78° C | 80% | 1010 hPa | 0 mm | - | 0 W/m² | - |
| 1777828518 | 12.78° C | 79% | 1010.1 hPa | 0 mm | - | 0 W/m² | - |
| 1777828218 | 12.78° C | 79% | 1010.1 hPa | 0 mm | - | 0 W/m² | - |
| 1777827919 | 13.33° C | 78% | 1009.9 hPa | 0 mm | - | 0 W/m² | - |
| 1777827618 | 13.33° C | 78% | 1009.8 hPa | 0 mm | - | 0 W/m² | - |
| 1777827318 | 13.33° C | 77% | 1009.9 hPa | 0 mm | - | 0 W/m² | - |
| 1777827018 | 13.89° C | 76% | 1010 hPa | 0 mm | - | 0 W/m² | - |
| 1777826718 | 14.44° C | 76% | 1010 hPa | 0 mm | - | 0 W/m² | - |
| 1777826418 | 14.44° C | 76% | 1010.1 hPa | 0.51 mm | - | 0 W/m² | - |
| 1777826117 | 15° C | 76% | 1010.2 hPa | 1.02 mm | - | 0 W/m² | - |
* Rain latest hour (hover to see other rain measurements)
** Current wind speed in m/s (hover to see current wind gust speed)